Weather Roundup
Issued by NWS Springfield, MO

Home | Current Version | Previous Version | Text Only | Print | Product List | Glossary On
Versions: 1 2 3 4 5 6 7 8 9 10 11 12 13 14 15 16 17 18 19 20 21 22 23 24 25 26 27 28 29 30 31 32 33 34 35 36 37 38 39 40 41 42 43 44 45 46 47 48 49 50
000
NZUS99 KSGF 040010
HRRSGF

HOURLY WEATHER
NATIONAL WEATHER SERVICE SPRINGFIELD MO
700 PM CDT THU SEP 03 2015

......SGF CWA......

CITY           SKY/WX    TMP DP  RH WIND       PRES   REMARKS
SPRINGFIELD    CLEAR     85  68  56 S5        29.94S
6HR MIN TEMP:  85; 6HR MAX TEMP:  90;

JOPLIN         CLEAR     85  70  60 SW7       29.92F
6HR MIN TEMP:  85; 6HR MAX TEMP:  88;

WEST PLAINS    CLEAR     84  67  56 CALM      29.97F
6HR MIN TEMP:  84; 6HR MAX TEMP:  89;

ROLLA          CLEAR     85  68  56 S7        29.94S
6HR MIN TEMP:  85; 6HR MAX TEMP:  93;

OSAGE BEACH    MOCLDY    88  66  48 S5        29.93S HX  90
BRANSON        MOCLDY    84  68  58 S6        29.96

......SURROUNDING SGF CWA......

CITY           SKY/WX    TMP DP  RH WIND       PRES   REMARKS
CHANUTE        CLEAR     84  68  58 S9        29.89F
PARSONS        CLEAR     84  71  65 S5        29.90S
COFFEYVILLE    CLEAR     84  71  65 S7        29.88S
EMPORIA        FAIR      86  66  51 S16       29.86S
GROVE OK       CLEAR     86  68  54 S5        29.92S
ROGERS AR      CLEAR     85  66  53 SW5       29.96S
SILOAM SPRINGS CLEAR     84  64  51 S5        29.93F
HARRISON AR    CLEAR     83  69  62 S3        29.96S
NEAR YELLVILLE PTCLDY    88  64  45 CALM      29.91S

......KANSAS AND MISSOURI......

CITY           SKY/WX    TMP DP  RH WIND       PRES   REMARKS
KANSAS CTY INT PTCLDY    86  68  54 S9        29.88S
DOWNTOWN KC    CLEAR     88  67  49 S10       29.86F HX  91
COLUMBIA       CLEAR     86  70  58 CALM      29.92F HX  90
SEDALIA        CLEAR     87  66  49 S6        29.92S
ST JOSEPH      CLEAR     85  70  60 S12       29.86R
ST LOUIS       PTCLDY    90  65  43 S7        29.92S HX  92
SPIRIT OF STL  PTCLDY    83  75  77 CALM      29.90F HX  90
KIRKSVILLE     CLEAR     85  70  60 S5        29.91S
WICHITA        PTSUNNY   88  63  43 S15       29.84S
TOPEKA         CLEAR     86  68  54 SE12      29.85S
OLATHE         CLEAR     83  68  60 S8        29.89S

......TENNESSEE......

CITY           SKY/WX    TMP DP  RH WIND       PRES   REMARKS
MEMPHIS        MOCLDY    89  69  51 W5        29.92S HX  93
NASHVILLE      PTCLDY    87  63  44 SE3       29.93S

......ARKANSAS.......

CITY           SKY/WX    TMP DP  RH WIND       PRES   REMARKS
FAYETTEVILLE   CLEAR     83  69  62 SE3       29.94F
FT SMITH       PTCLDY    89  67  47 NE9       29.87F HX  92
LITTLE ROCK    PTCLDY    91  67  44 SE6       29.90S HX  94

......OKLAHOMA.......

CITY           SKY/WX    TMP DP  RH WIND       PRES   REMARKS
TULSA          MOCLDY    90  67  46 S12       29.86F HX  93
PONCA CITY     PTCLDY    89  65  44 S9        29.84F HX  91
MCALESTER      CLEAR     89  70  53 S3        29.88F HX  94
OKLAHOMA CITY  MOSUNNY   89  62  40 S12       29.87F

......IOWA............

CITY           SKY/WX    TMP DP  RH WIND       PRES   REMARKS
DES MOINES     PTCLDY    86  70  58 S8        29.85S HX  90
QUAD CITIES    CLEAR     88  71  57 S3        29.88S HX  94

......ILLINOIS........

CITY           SKY/WX    TMP DP  RH WIND       PRES   REMARKS
QUINCY         CLEAR     87  68  52 SW5       29.90S HX  90
CHICAGO        MOCLDY    76  69  79 NE16      29.90R



USA.gov is the U.S. government's official web portal to all federal, state and local government web resources and services.